Погода в Туле

Погода в Туле : погода сейчас, прогноз погоды и архив. Всё, что Вы хотите узнать о погоде в Туле!

Хотите узнать прогноз погоды в Туле? Тогда Вам сюда: Погода в Туле

Поиск расширенной информации на нашем сайте:

Другие новости

Новости СМИ2

Главная страница сайта

Новости сайта

03.07.2017

Напоминаем, что на нашем специализированном сайте Метеоцентр.Азия вы можете получить высокодетализированные автоматические прогнозы погоды по пунктам России, СНГ и мира в авиационном формате (включающие направление и скорость ветра, видимость, явления погоды, количество и форму облачности, нижнюю и верхнюю границу облачности).


Погода в Туле - сегодня

Время (UTC), дата Ветер
(°,м/с) 
Видим.   Явления Облачность Т
(°С)
Тd
(°С)
f(%) Тe
(°С)
Pmin
(гПа)
dP
(гПа)
Po
(мм)
O2
(г/м3)
Тmin Tmax R s Состояние
почвы
12 15.06.18 090 (В) 10 км    9/4 1000 м средняя 
[Sc|Ac trans]
+17.6 +4.4 42 +18  1018.9  0.5  746  282           
15 15.06.18 060 (СВ) 10 км    6/3 1000 м средняя 
[Sc|Ac trans]
+17.6 +3.2 38 +18  1018.3  -0.6  746  282           
21 15.06.18 020 (С) 10 км    ясно 
+10 +4.4 68 +10  1019.7  0.6  746  289           
00 16.06.18 030 (СВ) 10 км    6/0 верхняя 
[Ci fib]
+8.4 +4 74 +8  1020.7  0.8  747  291           
03 16.06.18 030 (СВ) 10 км    8/0 средняя, верхняя 
[Ac trans|Ci fib]
+9.7 +4.3 69 +11  1021.4  0.8  747  290  +7.9         
09 16.06.18 070 (В) 10 км    4/1 600 м верхняя 
[Cu hum|Ci fib]
+20.6 +3.7 33 +21  1020.6  -0.2  747  279           
15 16.06.18 070 (В) 10 км    ясно 
+22.5 +4.3 30 +23  1019.1  -0.6  746  277           
21 16.06.18 030 (СВ) 10 км    ясно 
+12.9 +7.6 70 +14  1020.4  0.4  747  286           
00 17.06.18 тихо ()   10 км    ясно 
+9.4 +7 85 +9  1020.9  0.1  747  290           
09 17.06.18 080 (В) 10 км    6/0 1000 м 
[Cu hum]
+24.2 +6.1 31 +24  1019.2  -0.4  747  275           
12 17.06.18 100 (В) 10 км    6/6 1000 м 
[Cu hum]
+24.8 +5.9 30 +25  1018  -1.2  746  275           
15 17.06.18 050 (СВ) 10 км    4/4 1000 м 
[Cu hum]
+23.9 +5.9 31 +24  1017.2  -0.8  745  275           
21 17.06.18 030 (СВ) 10 км    ясно 
+14.4 +9.8 74 +17  1018.3  0.3  745  284           
00 18.06.18 тихо ()   10 км    ясно 
+10.6 +8.7 88 +11  1018.8  0.2  746  288           
09 18.06.18 тихо ()   10 км    3/3 1000 м 
[Cu hum]
+25.2 +7.4 32 +25  1016.6  -0.5  745  274           
12 18.06.18 280 (З) 10 км    4/4 1000 м 
[Cu hum]
+25.9 +6.6 29 +26  1015.7  -0.8  744  273           
15 18.06.18 тихо ()   10 км    6/3 1000 м верхняя 
[Cu hum|Ci fib]
+26.7 +6.8 28 +27  1014.6  -1  743  272           
21 18.06.18 тихо ()   10 км    ясно 
+14.9 +12.2 84 +19  1015.7  0.3  744  282           
00 19.06.18 тихо ()   10 км    ясно 
+12.3 +10.9 91 +15  1016  0.1  744  285           
03 19.06.18 тихо ()   10 км    9/0 верхняя 
[Ci fib]
+15 +11.4 79 +18  1015.6  -0.1  744  282  +11.6         
09 19.06.18 230 (ЮЗ) 10 км    10/3 600 м кучево-дожд., средняя, верхняя 
[Cb calv|Ac cast|Cc]
+23.4 +15.3 60 +33  1014  -0.4  743  273           
15 19.06.18 250 (З) 10 км    8/3 1000 м средняя, верхняя 
[Cu med, cong|Ac trans|Cc]
+26.1 +12 41 +30  1011.1  -1.5  741  270      0.0     
21 19.06.18 240 (ЮЗ) 10 км    8/0 верхняя 
[Ci]
+19.4 +13.7 70 +27  1010.5  -0.5  740  276           
03 20.06.18 250 (З) 10 км  {ливн. осадки}  3/3 600 м кучево-дожд. 
[Cb calv]
+17 +15 88 +26  1010.6  0.6  740  278  +16.6    0.8     
06 20.06.18 280 (З) 10 км  {ливн. осадки}  4/3 1000 м средняя 
[Cu hum|Ac trans]
+19.9 +7.3 44 +21  1011.4  0.9  741  277  +16.6    0.9    влажная 
Время (UTC), дата Ветер
(°,м/с) 
Видим.   Явления Облачность Т
(°С)
Тd
(°С)
f(%) Тe
(°С)
Pmin
(гПа)
dP
(гПа)
Po
(мм)
O2
(г/м3)
Тmin Tmax R s Состояние
почвы

Для получения пояснительной информации подведите курсор к названию столбца.

ПОГОДА в Туле - архив

Всё, что Вы хотите узнать о погоде в Туле - удобно и подробно!

Выберите нужную дату (начиная с 1 января 2015* года) и нажмите кнопку "Найти".
Будут отображены архивные сводки погоды по пункту Тула, начиная с указанной даты.


Отображать данные в формате CSV (для использования в таблицах Excel)


Внимание! Наш архив погоды предназначен исключительно для личного некоммерческого использования в познавательных целях. Если Вам необходимы официальные справки о состоянии погоды (для производственных, юридических, коммерческих и т.п. целей), обращайтесь в органы Росгидромета.

*Примечание: данная дата относится к архиву по метеостанциям СССР (Россия, СНГ, Балтия).
Архив по метеостанциям Зарубежной Европы и Азии (кроме Китая) хранится 10 дней, по другим регионам земного шара (Китай, Африка, Америка, Австралия, Океания) - 1 день.

Тула - район местоположения метеостанции


Название, широта, долгота, высота метеостанции:
Тула 54.2°ш. 37.6°д. 203 м над ур. моря [Российская Федерация]

Дополнительная информация

В oтличие oт бoльшинства пoгoдных сайтoв мы публикуем пoдрoбную метеoинфoрмацию в детальнoм прoфессиoнальнoм фoрмате.

Характеристики температуры и влажнoсти вoздуха измеряются на высoте 2 м в тени вдали oт зданий и деревьев.
Скoрoсть ветра измеряется на высoте 10 м (на урoвне рoста челoвека скoрoсть ветра ниже в 1.5-2 раза). Если метеoстанция нахoдится в гoрoде или в лесу, тo скoрoсть ветра занижена на 2-4 м/с пo сравнению с oткрытым местoм. Скoрoсть ветра над акватoриями крупных рек и oзёр, а также на вершинах хoлмoв на 2-5 м/с выше, чем в oбычных услoвиях.
Атмoсфернoе давление в разных тoчках местнoсти мoжет значительнo oтличаться oт давления на метеoстанции, в зависимoсти oт услoвий рельефа (при пoдъёме на 10 м давление пoнижается примернo на 1 мм рт.ст.).